Location: Dehesa de la Cepeda
(40.6574°N, 4.3013°W)
Time: 10:59:22
(UTC+00:00)

Vanguard 2 Rocket - Pass Details

Date: 26 October 2021
Orbit: 555 x 3324 km, 32.9° (Epoch: 09 December)

Event Time Altitude Azimuth Distance (km) Brightness Sun altitude
Exits shadow 02:47:05 21° 174° (S) 4,812 10.3 -44.1°
Maximum altitude 02:52:24 25° 150° (SSE) 4,227 10.2 -43.2°
Drops below altitude 10° 03:02:04 10° 103° (ESE) 4,463 10.9 -41.5°
Sets 03:05:51 0° 90° (E) 5,054 11.5 -40.8°
